Flag for U.S.A. Weather past 2 weeks in Toledo, Ohio, U.S.A.

Now
50 °F

Fog.


Feels Like: 50 °F
Forecast: 53 / 78 °F
Wind: No wind

Location: Toledo Suburban Airport

Current Time: Oct 2, 2014 at 5:27:41 AM

Latest Report: Oct 2, 2014 at 4:54 AM


Visibility: 2 mi

Pressure: 30.02 "Hg

Humidity: 88%

Dew point: 46 °F

Location of ToledoLocation

Historic Weather in Toledo — Graph

°F

Toledo temperature yesterday

Maximum temperature yesterday: 68 °F (at 5:15 PM)
Minimum temperature yesterday: 45 °F (at 2:35 AM)
Average temperature yesterday: 55 °F

Past Weeks' High & Low Weather Summary

 TemperatureHumidityPressure
High81 °F (Sep 20, 2:55 PM)100% (Sep 24, 5:15 AM)30.44 "Hg (Sep 24, 5:15 AM)
Low41 °F (Sep 17, 6:35 AM)30% (Sep 29, 4:35 PM)29.62 "Hg (Sep 21, 5:55 AM)
Average58 °F77%30.13 "Hg
* Reported Sep 17 4:15 AM — Oct 2 4:35 AM, Toledo, Weather by CustomWeather, © 2014

Note: Actual official high and low records may vary slightly from our data, if they occured in-between our weather recording intervals... More about our weather records

Advertising

Toledo weather history for previous 24 hours

 ConditionsComfort  
Time TempWeatherWind HumidityBarometerVisibility
4:35 AM
Oct 2
50 °FFog.No wind88%30.03 "Hg1 mi
4:15 AM50 °FFog.No wind94%30.03 "Hg1 mi
3:54 AM50 °FFog.No wind94%30.03 "Hg1 mi
3:35 AM50 °FFog.No wind88%30.03 "Hg1 mi
3:15 AM50 °FFog.No wind94%30.03 "Hg1 mi
2:55 AM50 °FFog.No wind88%30.03 "Hg1 mi
2:34 AM50 °FFog.No wind94%30.04 "Hg1 mi
2:15 AM50 °FFog.No wind88%30.04 "Hg1 mi
1:54 AM50 °FFog.No wind88%30.04 "Hg2 mi
1:35 AM50 °FFog.No wind88%30.03 "Hg2 mi
1:15 AM50 °FFog.No wind94%30.04 "Hg1 mi
12:54 AM50 °FFog.No wind94%30.04 "Hg1 mi
12:35 AM50 °FFog.No wind88%30.04 "Hg1 mi
12:15 AM50 °FFog.No wind94%30.05 "Hg1 mi
11:54 PM
Oct 1
50 °FFog.No wind94%30.04 "Hg2 mi
11:35 PM52 °FFog.No wind94%30.04 "Hg1 mi
11:15 PM52 °FFog.No wind94%30.04 "Hg1 mi
10:54 PM52 °FFog.No wind94%30.04 "Hg1 mi
10:35 PM52 °FFog.No wind94%30.04 "Hg1 mi
10:15 PM52 °FFog.No wind94%30.04 "Hg2 mi
9:55 PM54 °FFog.No wind88%30.04 "Hg1 mi
9:34 PM54 °FFog.No wind94%30.03 "Hg4 mi
9:15 PM54 °FFog.No wind94%30.03 "Hg3 mi
8:54 PM54 °FFog.No wind94%30.03 "Hg5 mi
8:35 PM55 °FFog.No wind88%30.02 "Hg5 mi
8:15 PM55 °FFog.No wind88%30.02 "Hg5 mi
7:54 PM57 °FSunny.No wind82%30.03 "Hg7 mi
7:35 PM59 °FSunny.No wind82%30.02 "Hg10 mi
7:15 PM61 °FSunny.No wind77%30.02 "Hg10 mi
6:55 PM63 °FSunny.No wind73%30.02 "Hg10 mi
6:35 PM64 °FSunny.3 mph68%30.01 "Hg10 mi
6:15 PM64 °FSunny.6 mph68%30.01 "Hg10 mi
5:54 PM66 °FSunny.5 mph60%30.01 "Hg10 mi
5:35 PM68 °FSunny.5 mph56%30.01 "Hg10 mi
5:15 PM68 °FSunny.3 mph56%30.01 "Hg10 mi
4:54 PM66 °FBroken clouds.No wind60%30.02 "Hg10 mi
4:35 PM64 °FOvercast.No wind64%30.02 "Hg10 mi
3:55 PM64 °FScattered clouds.No wind64%30.03 "Hg10 mi
3:34 PM64 °FOvercast.No wind64%30.03 "Hg10 mi
3:15 PM66 °FMore clouds than sun.No wind60%30.03 "Hg10 mi
2:54 PM66 °FBroken clouds.No wind60%30.04 "Hg10 mi
2:35 PM64 °FMostly cloudy.No wind64%30.05 "Hg10 mi
1:54 PM64 °FMore clouds than sun.3 mph64%30.07 "Hg10 mi
1:35 PM64 °FMore clouds than sun.No wind64%30.07 "Hg10 mi
1:15 PM64 °FMore clouds than sun.No wind60%30.07 "Hg10 mi
12:55 PM63 °FOvercast.No wind64%30.07 "Hg10 mi
12:35 PM63 °FPartly sunny.No wind64%30.07 "Hg10 mi
12:15 PM63 °FPartly sunny.No wind64%30.07 "Hg10 mi
11:54 AM61 °FOvercast.No wind72%30.07 "Hg10 mi
11:35 AM61 °FPartly sunny.No wind72%30.07 "Hg10 mi
11:15 AM61 °FScattered clouds.No wind72%30.08 "Hg10 mi
10:54 AM59 °FPartly sunny.No wind77%30.08 "Hg10 mi
10:35 AM57 °FPartly sunny.No wind82%30.07 "Hg10 mi
10:15 AM57 °FSunny.3 mph88%30.07 "Hg10 mi
9:54 AM55 °FSunny.No wind88%30.07 "Hg7 mi
9:35 AM54 °FSunny.No wind94%30.07 "Hg7 mi
9:15 AM52 °FSunny.3 mph94%30.06 "Hg7 mi
8:55 AM50 °FFog.No wind94%30.06 "Hg5 mi
8:35 AM48 °FFog.No wind94%30.05 "Hg4 mi
7:54 AM45 °FFog.No wind93%30.04 "Hg0 mi
7:35 AM45 °FFog.No wind93%30.04 "Hg1 mi
7:15 AM45 °FFog.No wind93%30.03 "Hg1 mi
6:54 AM46 °FFog.No wind93%30.03 "Hg1 mi
6:35 AM46 °FFog.No wind93%30.03 "Hg2 mi
6:15 AM46 °FFog.No wind93%30.02 "Hg1 mi
5:54 AM46 °FFog.No wind93%30.02 "Hg4 mi
5:35 AM46 °FFog.No wind93%30.02 "Hg2 mi
5:15 AM45 °FFog.3 mph93%30.02 "Hg3 mi
Weather by CustomWeather, © 2014

See weather overviewHow to use our weather pages